• In Uzbekistan
  • List of Countries
  • For 7 days
  • Water Temperature
  • Satellite Maps
  • Weather Map
  • Weather Widgets
  • user-avatar
    Login

    Hourly Weather Kerns

    Today, 20 October, Friday

    Time Temperature Precipitation Wind Pressure Humidity
    00:00 +25°C° 0.3 mm 3 mps 760 mmHg 95%
    01:00 +25°C° 0.3 mm 3 mps 760 mmHg 96%
    02:00 +25°C° 0.4 mm 3 mps 760 mmHg 96%
    03:00 +25°C° 0.4 mm 3 mps 759 mmHg 96%
    04:00 +25°C° 0 mm 4 mps 759 mmHg 96%
    05:00 +25°C° 0.4 mm 4 mps 759 mmHg 94%
    06:00 +26°C° 0.4 mm 4 mps 760 mmHg 93%
    07:00 +26°C° 0.4 mm 4 mps 760 mmHg 91%
    08:00 +27°C° 0.8 mm 4 mps 760 mmHg 87%
    09:00 +28°C° 0.8 mm 5 mps 761 mmHg 83%
    10:00 +29°C° 0.8 mm 5 mps 761 mmHg 79%
    11:00 +29°C° 0.8 mm 5 mps 760 mmHg 78%
    12:00 +30°C° 0.8 mm 5 mps 760 mmHg 77%
    13:00 +30°C° 0.8 mm 5 mps 760 mmHg 76%
    14:00 +30°C° 0.5 mm 5 mps 759 mmHg 77%
    15:00 +29°C° 0.5 mm 5 mps 759 mmHg 78%
    16:00 +29°C° 0.5 mm 5 mps 759 mmHg 79%
    17:00 +28°C° 0.5 mm 4 mps 759 mmHg 84%
    18:00 +27°C° 0.5 mm 4 mps 759 mmHg 88%
    19:00 +26°C° 0.5 mm 4 mps 759 mmHg 92%
    20:00 +26°C° 0.7 mm 4 mps 760 mmHg 93%
    21:00 +26°C° 0.7 mm 4 mps 760 mmHg 93%
    22:00 +26°C° 0.7 mm 4 mps 760 mmHg 94%
    23:00 +26°C° 0.4 mm 4 mps 760 mmHg 94%

    Tomorrow, 21 October, Saturday

    Time Temperature Precipitation Wind Pressure Humidity
    00:00 +26°C° 0.4 mm 4 mps 759 mmHg 94%
    01:00 +25°C° 0.4 mm 4 mps 759 mmHg 94%
    02:00 +25°C° 0.2 mm 4 mps 759 mmHg 95%
    03:00 +25°C° 0.2 mm 3 mps 759 mmHg 96%
    04:00 +25°C° 0.2 mm 3 mps 758 mmHg 96%
    05:00 +25°C° 0.1 mm 3 mps 759 mmHg 94%
    06:00 +25°C° 0.1 mm 3 mps 759 mmHg 92%
    07:00 +26°C° 0.1 mm 3 mps 759 mmHg 90%
    08:00 +27°C° 0.1 mm 3 mps 759 mmHg 83%
    09:00 +29°C° 0.1 mm 3 mps 759 mmHg 76%
    10:00 +30°C° 0.1 mm 3 mps 759 mmHg 70%
    11:00 +31°C° 0.1 mm 3 mps 759 mmHg 67%
    12:00 +33°C° 0.1 mm 3 mps 758 mmHg 65%
    13:00 +33°C° 0.1 mm 3 mps 757 mmHg 63%
    14:00 +33°C° 0.4 mm 3 mps 757 mmHg 68%
    15:00 +31°C° 0.4 mm 3 mps 756 mmHg 73%
    16:00 +30°C° 0.4 mm 3 mps 756 mmHg 78%
    17:00 +29°C° 0.3 mm 3 mps 756 mmHg 82%
    18:00 +28°C° 0.3 mm 3 mps 757 mmHg 87%
    19:00 +27°C° 0.3 mm 3 mps 757 mmHg 91%
    20:00 +26°C° 0.3 mm 2 mps 758 mmHg 92%
    21:00 +26°C° 0.3 mm 2 mps 758 mmHg 93%
    22:00 +26°C° 0.3 mm 2 mps 758 mmHg 95%
    23:00 +25°C° 0 mm 2 mps 758 mmHg 95%

    Day after tomorrow, 22 October, Sunday

    Time Temperature Precipitation Wind Pressure Humidity
    00:00 +25°C° 0 mm 1 mps 757 mmHg 95%
    01:00 +25°C° 0 mm 1 mps 757 mmHg 95%
    02:00 +25°C° 0.1 mm 1 mps 757 mmHg 95%
    03:00 +25°C° 0.1 mm 1 mps 756 mmHg 95%
    04:00 +25°C° 0.1 mm 2 mps 756 mmHg 95%
    05:00 +25°C° 0 mm 1 mps 756 mmHg 93%
    06:00 +26°C° 0 mm 1 mps 757 mmHg 91%
    07:00 +26°C° 0 mm 1 mps 757 mmHg 88%
    08:00 +28°C° 0 mm 1 mps 757 mmHg 81%
    09:00 +30°C° 0 mm 1 mps 758 mmHg 74%
    10:00 +31°C° 0 mm 2 mps 758 mmHg 67%
    11:00 +31°C° 0.3 mm 2 mps 757 mmHg 67%
    12:00 +32°C° 0.3 mm 2 mps 757 mmHg 67%
    13:00 +32°C° 0.3 mm 2 mps 756 mmHg 67%
    14:00 +31°C° 0.3 mm 2 mps 756 mmHg 71%
    15:00 +30°C° 0.3 mm 2 mps 756 mmHg 74%
    16:00 +30°C° 0.3 mm 2 mps 755 mmHg 77%
    17:00 +29°C° 0.6 mm 2 mps 756 mmHg 82%
    18:00 +27°C° 0.6 mm 2 mps 756 mmHg 87%
    19:00 +26°C° 0.6 mm 2 mps 757 mmHg 92%
    20:00 +26°C° 0.5 mm 2 mps 757 mmHg 92%
    21:00 +26°C° 0.5 mm 2 mps 758 mmHg 93%
    22:00 +25°C° 0.5 mm 2 mps 758 mmHg 94%
    23:00 +25°C° 0.1 mm 1 mps 758 mmHg 95%

    23 October, Monday

    Time Temperature Precipitation Wind Pressure Humidity
    00:00 +25°C° 0.1 mm 1 mps 757 mmHg 95%
    01:00 +25°C° 0.1 mm 1 mps 757 mmHg 96%
    02:00 +24°C° 0 mm 1 mps 757 mmHg 96%
    03:00 +24°C° 0 mm 1 mps 757 mmHg 96%
    04:00 +24°C° 0 mm 1 mps 757 mmHg 96%
    05:00 +25°C° 0 mm 1 mps 758 mmHg 93%
    06:00 +25°C° 0 mm 1 mps 758 mmHg 90%
    07:00 +26°C° 0 mm 1 mps 759 mmHg 87%
    08:00 +28°C° 0 mm 1 mps 759 mmHg 75%
    09:00 +30°C° 0 mm 2 mps 759 mmHg 62%
    10:00 +34°C° 0 mm 2 mps 759 mmHg 50%
    11:00 +34°C° 0 mm 2 mps 759 mmHg 50%
    12:00 +34°C° 0 mm 3 mps 758 mmHg 49%
    13:00 +34°C° 0 mm 3 mps 758 mmHg 48%
    14:00 +34°C° 0.1 mm 3 mps 758 mmHg 54%
    15:00 +33°C° 0.1 mm 3 mps 758 mmHg 59%
    16:00 +31°C° 0.1 mm 3 mps 757 mmHg 64%
    17:00 +29°C° 0.1 mm 3 mps 758 mmHg 72%
    18:00 +28°C° 0.1 mm 3 mps 759 mmHg 80%
    19:00 +26°C° 0.1 mm 2 mps 759 mmHg 89%
    20:00 +26°C° 0 mm 2 mps 760 mmHg 90%
    21:00 +26°C° 0 mm 2 mps 760 mmHg 91%
    22:00 +26°C° 0 mm 2 mps 761 mmHg 92%
    23:00 +25°C° 0 mm 2 mps 760 mmHg 92%

    24 October, Tuesday

    Time Temperature Precipitation Wind Pressure Humidity
    00:00 +25°C° 0 mm 2 mps 760 mmHg 93%
    01:00 +25°C° 0 mm 2 mps 760 mmHg 93%
    02:00 +25°C° 0 mm 2 mps 760 mmHg 93%
    03:00 +25°C° 0 mm 2 mps 760 mmHg 94%
    04:00 +25°C° 0 mm 2 mps 759 mmHg 94%
    05:00 +25°C° 0 mm 2 mps 760 mmHg 92%
    06:00 +25°C° 0 mm 2 mps 761 mmHg 90%
    07:00 +26°C° 0 mm 3 mps 762 mmHg 88%
    08:00 +27°C° 0.1 mm 3 mps 762 mmHg 81%
    09:00 +29°C° 0.1 mm 3 mps 762 mmHg 74%
    10:00 +30°C° 0.1 mm 4 mps 762 mmHg 67%
    11:00 +32°C° 0.2 mm 4 mps 762 mmHg 65%
    12:00 +32°C° 0.2 mm 4 mps 761 mmHg 64%
    13:00 +32°C° 0.2 mm 4 mps 761 mmHg 62%
    14:00 +32°C° 0.1 mm 4 mps 761 mmHg 61%
    15:00 +32°C° 0.1 mm 4 mps 760 mmHg 60%
    16:00 +32°C° 0.1 mm 4 mps 760 mmHg 58%
    17:00 +29°C° 0 mm 4 mps 761 mmHg 66%
    18:00 +27°C° 0 mm 4 mps 761 mmHg 74%
    19:00 +26°C° 0 mm 3 mps 762 mmHg 82%
    20:00 +25°C° 0 mm 4 mps 762 mmHg 84%
    21:00 +25°C° 0 mm 4 mps 762 mmHg 87%
    22:00 +23°C° 0 mm 4 mps 763 mmHg 90%
    23:00 +23°C° 0 mm 4 mps 762 mmHg 90%

    25 October, Wednesday

    Time Temperature Precipitation Wind Pressure Humidity
    00:00 +24°C° 0 mm 3 mps 762 mmHg 91%
    01:00 +24°C° 0 mm 3 mps 761 mmHg 92%
    02:00 +24°C° 0 mm 3 mps 761 mmHg 91%
    03:00 +22°C° 0 mm 3 mps 761 mmHg 91%
    04:00 +22°C° 0 mm 3 mps 761 mmHg 91%
    05:00 +24°C° 0 mm 3 mps 762 mmHg 88%
    06:00 +24°C° 0 mm 3 mps 762 mmHg 85%
    07:00 +25°C° 0 mm 4 mps 763 mmHg 82%
    08:00 +27°C° 0 mm 4 mps 763 mmHg 73%
    09:00 +29°C° 0 mm 4 mps 763 mmHg 65%
    10:00 +30°C° 0 mm 4 mps 763 mmHg 56%
    11:00 +32°C° 0 mm 4 mps 762 mmHg 54%
    12:00 +33°C° 0 mm 4 mps 762 mmHg 51%
    13:00 +34°C° 0 mm 4 mps 761 mmHg 49%
    14:00 +33°C° 0 mm 4 mps 761 mmHg 50%
    15:00 +32°C° 0 mm 4 mps 760 mmHg 52%
    16:00 +32°C° 0 mm 4 mps 760 mmHg 54%
    17:00 +29°C° 0 mm 4 mps 761 mmHg 62%
    18:00 +27°C° 0 mm 3 mps 761 mmHg 70%
    19:00 +25°C° 0 mm 3 mps 762 mmHg 78%
    20:00 +25°C° 0 mm 3 mps 762 mmHg 81%
    21:00 +24°C° 0 mm 3 mps 762 mmHg 84%
    22:00 +22°C° 0 mm 3 mps 763 mmHg 86%
    23:00 +22°C° 0 mm 3 mps 762 mmHg 87%
    Show more